Simultaneous Nadir Overpasses (SNOs) Predictions

Prediction of SNOs between GOES-16 and METOP-C Satellite Orbit:

Table of predicted SNOs for the next 14.0 days since TLE Epoch: 8/1/2020
Index Date Time (GOES-16) GOES-16 Lat,Lon METOP-C Lat,Lon Distance(km) Time Diff (sec)
1 08/03/2020 02:40:52 0.02, -75.18 -0.40, -76.95 202.26 80
2 08/04/2020 02:17:32 0.03, -75.18 0.73, -71.96 367.20 80
3 08/05/2020 14:39:03 -0.03, -75.21 0.29, -76.52 149.66 80
4 08/06/2020 14:15:44 -0.03, -75.22 -0.85, -71.53 420.47 80
5 08/08/2020 02:37:23 0.03, -75.22 -0.19, -76.12 102.61 80
6 08/09/2020 02:14:04 0.04, -75.23 0.95, -71.13 467.80 80
7 08/10/2020 14:35:35 -0.03, -75.27 0.06, -75.69 47.68 80
8 08/13/2020 02:31:15 0.03, -75.29 0.03, -75.29 0.89 80
9 08/15/2020 14:29:26 -0.03, -75.35 -0.11, -74.85 56.71 80
